Temperature
31 32 32 32 32 33 32 32 31 31 31 32 32 32 31 31 30 30 29 28 28 27 26 25 24 24 23 23 23 22 21 21 20 20 20 19 19 19 19 19 18 18 18 18
30 31 31 31 32 33 33 33 32 32 32 32 32 32 31 30 30 29 28 28 27 26 26 25 24 23 23 23 22 22 21 21 20 20 19 19 19 19 19 18 18 18 18 18
28 30 31 30 31 32 32 33 32 31 31 32 31 31 30 29 29 29 28 27 27 26 25 24 24 23 23 22 22 21 21 21 20 20 19 19 19 18 18 18 18 18 18 18
28 28 27 30 33 33 32 32 32 32 32 32 31 30 29 29 28 28 27 27 26 25 25 25 24 23 23 22 22 21 21 21 20 20 19 19 19 18 18 18 18 18 18 18
27 27 28 30 31 32 31 30 31 31 31 31 30 30 29 28 27 27 26 26 25 25 25 24 24 23 22 22 21 21 20 20 20 20 19 19 18 18 18 18 18 18 18 18
26 26 26 29 31 31 31 29 30 30 30 30 30 29 29 27 27 26 26 25 25 24 24 24 23 23 22 21 21 20 20 20 20 19 19 19 18 18 18 18 18 18 18 18
26 26 27 29 30 30 28 28 29 29 29 29 28 28 27 26 25 25 25 24 24 23 23 23 22 22 21 21 20 20 20 20 19 19 19 19 18 18 18 18 17 18 18 18
26 25 26 28 29 28 27 27 27 28 27 27 27 26 26 25 24 24 24 23 23 23 22 22 22 21 21 20 20 20 19 19 19 19 18 18 18 18 18 18 17 17 17 17
26 26 26 27 27 26 26 26 26 26 26 26 26 25 25 24 24 23 23 23 22 22 22 21 21 21 20 20 20 19 19 19 19 18 18 18 18 18 17 17 17 17 17 17
25 26 26 26 26 25 25 25 25 25 25 25 25 24 24 23 23 23 22 22 22 21 21 21 20 20 20 19 19 19 19 18 18 18 18 18 18 17 17 17 17 17 17 17
24 25 25 25 24 24 24 24 24 24 24 24 24 23 23 22 22 22 21 21 21 20 20 20 20 20 19 19 19 18 18 18 18 18 18 18 18 17 17 17 17 17 17 17
24 24 24 23 23 23 23 23 23 23 23 23 22 22 22 21 21 21 20 20 20 20 20 19 19 19 19 18 18 18 18 18 17 18 18 17 17 17 17 17 17 17 17 17
23 23 22 22 22 22 22 22 22 22 22 22 22 21 21 21 20 20 20 19 19 19 19 18 18 18 18 18 18 18 18 17 17 17 17 17 17 17 17 17 17 17 16 16
21 21 21 21 21 21 21 21 21 21 21 21 21 21 20 20 19 19 19 19 19 18 18 18 18 17 17 17 17 17 17 17 17 17 17 17 17 17 17 17 16 16 16 16
20 20 20 20 20 20 20 20 20 20 20 20 20 20 20 19 19 19 18 18 18 18 17 17 17 17 17 17 17 17 17 17 17 17 17 17 17 17 16 16 16 16 16 16
20 20 20 20 20 20 20 20 20 20 20 20 19 19 19 18 18 18 18 18 17 17 17 17 16 16 16 16 16 16 17 17 16 16 16 16 16 16 16 16 16 16 15 15
19 19 19 19 19 19 19 19 19 19 19 19 18 18 18 18 17 17 17 17 17 16 16 16 16 16 16 16 16 16 16 16 16 16 16 16 16 16 16 16 16 16 15 15
18 18 18 18 18 18 18 18 18 18 18 18 18 17 17 17 17 16 16 16 16 16 16 15 15 15 15 15 15 15 15 15 15 15 15 15 15 15 15 15 15 15 15 15
18 18 18 18 18 17 17 18 18 18 18 17 17 17 17 16 16 16 16 15 15 15 15 15 15 15 15 15 15 15 15 15 15 15 15 15 15 15 15 15 15 15 15 14
17 17 17 17 17 17 17 17 17 17 17 17 17 16 16 16 15 15 15 15 15 15 15 15 14 14 14 14 15 14 15 15 15 15 15 15 15 15 15 15 14 14 14 14
17 16 16 16 16 16 16 16 16 16 16 16 16 15 15 15 15 15 15 14 14 14 14 14 14 14 14 14 14 14 14 14 15 15 14 14 14 14 14 14 14 14 13 13
16 15 15 15 16 16 16 16 16 15 15 15 15 15 15 15 15 14 14 14 14 14 14 14 14 14 14 14 14 14 14 14 14 14 14 14 14 14 14 13 13 13 13 12
15 15 15 15 15 15 15 15 15 15 15 15 14 14 14 14 14 14 14 14 14 14 14 13 14 14 13 14 13 13 13 14 14 14 14 14 13 13 13 13 13 12 12 12
14 14 14 14 14 14 14 14 14 14 14 14 14 14 14 14 14 14 14 14 14 14 13 13 13 13 13 13 13 13 13 13 13 13 13 13 13 13 13 12 12 12 11 11
13 13 13 13 14 14 14 14 14 14 14 13 13 13 14 14 13 13 13 13 13 13 13 13 13 13 13 13 12 13 13 13 13 13 13 13 12 12 12 12 11 11 11 11
13 13 13 13 13 13 14 14 14 14 13 13 13 13 13 13 13 13 13 13 13 13 13 13 13 13 12 12 12 12 12 12 12 12 12 12 12 11 11 11 10 10 10 10
13 13 13 13 13 13 14 14 14 14 14 14 14 13 13 13 13 13 13 13 13 13 12 12 12 12 12 12 12 12 12 12 12 12 11 11 11 11 10 10 10 9 9 9
Wind_Speed
15 14 13 12 13 14 14 11 10 7 5 3 3 2 3 4 3 3 4 4 4 5 6 6 6 6 7 7 6 7 7 8 8 7 6 6 5 5 4 5 5 4 5 4
16 16 15 16 14 13 13 11 11 8 6 2 3 3 2 3 4 4 4 4 3 4 6 7 7 7 7 6 6 6 6 7 7 7 7 6 6 6 5 4 4 4 4 4
14 15 16 18 15 14 12 11 10 8 4 2 1 3 2 2 2 2 2 3 4 4 5 6 7 7 7 7 7 6 6 6 6 7 6 6 7 6 6 5 5 4 4 4
13 15 18 13 10 11 11 10 8 5 4 2 1 2 2 2 2 1 1 1 3 3 5 7 7 7 7 7 6 6 6 6 7 7 7 6 6 6 5 5 5 5 5 5
11 14 15 12 10 9 9 6 5 5 5 3 2 3 3 2 2 2 2 1 1 3 5 6 7 7 7 7 7 7 7 6 6 6 6 6 6 5 5 5 5 5 5 5
11 12 13 9 7 8 8 7 4 5 5 4 4 5 1 3 1 1 1 2 1 2 2 3 5 7 7 7 7 7 7 6 5 5 5 5 5 5 4 4 4 5 5 5
14 13 10 8 8 8 8 3 1 2 3 3 3 2 2 4 3 1 1 2 2 2 2 3 3 4 5 6 6 6 5 5 5 5 4 5 4 4 4 5 5 5 5 5
13 14 10 6 7 5 2 4 3 3 3 3 3 3 3 3 3 2 1 2 2 1 2 3 3 4 4 4 4 4 4 5 5 5 5 5 4 4 4 5 5 5 5 5
7 7 2 3 2 3 3 3 3 4 4 3 3 3 2 2 1 0 1 1 1 2 2 2 3 4 4 3 3 4 4 4 5 5 5 4 5 6 5 6 6 6 5 6
5 4 4 2 1 2 3 3 3 4 4 3 2 2 2 1 1 1 1 1 1 2 1 2 2 3 3 2 3 3 4 4 4 5 6 5 5 6 6 6 6 5 5 5
7 6 4 3 2 2 3 4 4 4 4 4 3 2 3 2 2 1 1 1 1 1 1 1 1 2 2 3 3 3 3 4 5 5 5 5 4 3 4 3 4 4 4 4
6 3 4 4 4 3 3 4 4 5 4 4 3 2 2 2 1 1 1 1 1 0 1 1 1 1 1 2 3 3 4 4 5 5 4 5 5 4 2 3 4 4 2 2
5 4 5 6 5 4 4 4 3 4 4 3 2 1 2 1 1 1 1 1 1 0 0 1 1 1 1 2 2 3 3 4 4 4 4 5 5 5 4 3 3 3 4 3
5 4 5 5 6 5 5 6 5 5 4 3 2 1 1 1 1 1 1 0 0 1 1 1 1 0 0 1 1 2 4 4 4 4 4 4 4 4 4 4 4 4 5 7
6 5 5 5 6 6 6 6 6 5 3 2 1 1 0 1 1 1 1 1 1 1 1 1 1 1 1 1 2 3 4 3 4 4 4 4 3 4 4 4 3 3 3 3
6 6 6 5 6 5 5 6 6 5 3 1 1 1 1 1 1 2 2 1 1 1 1 1 1 1 1 2 2 2 2 3 4 4 4 4 3 4 4 3 4 4 3 2
6 6 7 6 6 5 5 5 5 5 2 1 1 1 1 1 1 1 1 1 2 2 1 0 1 1 1 2 2 3 3 2 3 4 4 4 4 4 4 4 4 2 1 1
7 7 7 6 5 5 4 5 5 4 3 1 1 1 0 1 1 1 1 1 1 1 1 1 1 1 2 1 2 3 3 3 3 4 4 4 4 4 3 3 3 3 2 2
7 6 6 5 6 5 6 5 4 4 3 1 2 2 1 1 0 0 0 1 1 1 1 1 2 3 2 2 3 3 4 3 3 3 3 3 4 4 4 3 3 3 3 3
5 5 5 5 6 5 5 4 4 3 3 3 2 1 1 1 1 1 0 1 1 2 1 1 1 2 3 2 4 4 4 4 3 3 3 4 4 3 3 3 4 4 3 2
4 4 4 4 4 4 4 4 4 3 3 3 1 2 2 1 1 1 1 2 1 1 1 1 1 2 2 3 4 4 4 4 4 4 3 3 3 3 3 3 3 3 3 2
3 3 3 4 4 3 3 2 2 2 2 2 2 2 2 2 2 1 0 0 0 1 1 1 1 2 4 4 3 4 3 4 3 3 3 2 2 2 2 2 2 2 3 2
3 3 4 4 4 3 3 2 2 1 1 2 1 2 2 2 2 2 1 0 0 0 1 1 2 2 3 3 3 3 3 3 3 3 3 2 2 2 2 1 2 1 2 2
3 3 4 4 4 4 3 2 2 2 2 1 2 3 3 3 2 1 1 1 1 1 0 1 0 1 3 2 2 2 3 3 3 3 3 2 2 2 1 2 2 2 2 3
4 4 4 4 4 3 2 2 3 3 3 2 3 3 2 2 2 1 0 1 1 2 2 2 3 4 3 2 3 3 2 2 3 3 2 2 2 2 2 3 3 3 3 3
3 3 3 3 3 2 2 2 2 1 1 2 2 2 1 1 1 1 1 2 2 2 2 2 3 3 2 3 2 2 1 1 2 1 1 2 2 3 3 2 3 3 3 3
2 2 2 3 3 3 2 1 1 1 2 2 1 0 1 1 1 1 1 1 1 2 2 2 2 1 1 2 1 1 1 1 1 2 2 2 2 2 2 3 3 3 3 3
Wind_Direction
262 261 263 260 250 243 245 252 256 251 236 216 146 123 107 125 137 133 140 154 151 152 146 155 161 158 164 173 170 174 175 182 182 182 185 189 186 185 186 198 208 209 210 214
262 257 256 261 258 253 249 246 250 253 260 213 128 118 120 142 153 161 163 165 160 156 155 162 167 165 169 172 168 166 174 182 175 176 182 184 183 182 186 193 210 217 220 216
260 259 257 249 250 249 251 249 248 252 259 236 179 142 140 139 159 182 190 175 165 167 168 168 166 166 168 167 167 170 171 171 168 172 179 181 188 182 189 197 204 210 220 212
254 258 253 251 250 254 252 255 255 247 258 222 181 171 163 164 176 196 191 190 175 191 184 175 173 174 166 171 169 173 176 179 174 177 182 185 190 189 191 195 201 209 215 213
253 249 250 247 242 251 251 254 260 261 269 261 251 219 192 175 182 185 184 157 175 197 205 182 176 172 165 176 177 179 184 187 184 181 181 185 193 196 198 203 210 214 210 215
248 252 251 254 253 255 251 245 254 267 280 270 262 252 211 115 117 220 151 133 170 225 211 177 168 167 168 186 185 189 189 188 184 182 184 190 194 196 200 204 215 222 220 218
244 252 254 271 284 281 252 245 324 284 291 290 306 342 37 91 86 72 83 127 138 177 188 158 153 165 175 191 193 189 181 177 179 182 189 192 191 193 199 212 219 226 228 228
236 245 249 268 267 272 330 26 13 348 346 6 15 32 48 54 60 67 98 153 151 159 160 147 157 163 179 194 186 173 178 179 179 183 204 202 191 200 207 219 223 230 230 234
230 236 256 326 320 15 26 43 20 356 358 12 5 7 22 29 30 75 151 134 167 174 153 154 165 175 194 193 172 171 179 189 192 191 198 202 197 205 211 217 228 233 234 238
249 231 254 267 322 3 358 3 350 333 330 342 333 333 347 341 314 321 136 149 169 171 183 175 177 184 184 172 161 171 186 198 205 200 205 203 210 213 218 224 228 234 243 250
244 252 267 281 314 342 359 338 321 308 303 310 314 317 328 346 16 11 35 80 63 90 186 196 153 146 161 161 163 184 198 209 218 220 219 209 217 232 225 222 219 229 245 250
258 277 278 281 305 328 327 316 327 318 324 322 311 316 336 344 26 26 38 61 66 302 243 184 145 144 155 167 174 190 207 218 224 223 222 222 214 220 237 214 189 188 201 239
288 298 300 300 306 314 310 307 314 304 293 290 297 311 321 354 31 30 65 84 78 37 32 135 155 168 186 184 196 208 223 230 236 235 231 233 229 223 222 215 208 208 215 225
307 309 286 289 296 298 292 296 299 295 292 295 321 319 318 -0 10 35 339 317 8 17 35 56 67 47 169 172 217 230 243 240 243 245 247 248 244 241 237 232 235 238 230 224
285 286 279 279 283 297 299 298 292 282 268 282 317 305 349 50 22 1 346 311 75 92 65 32 12 6 348 256 246 240 253 262 256 262 262 259 255 247 252 249 242 238 239 226
280 284 280 265 262 268 278 288 296 291 288 294 344 4 47 53 44 25 9 18 64 55 31 347 328 342 301 267 261 255 258 272 275 275 276 271 264 262 259 253 252 247 238 232
263 261 263 265 268 273 275 280 288 284 293 318 321 343 64 86 59 32 349 355 49 46 13 30 33 6 317 308 292 277 280 272 263 273 280 282 277 274 274 273 270 263 258 220
255 257 260 264 270 276 280 276 275 280 275 257 280 282 245 185 250 352 352 27 54 51 4 9 358 316 297 297 288 278 275 269 264 272 281 282 282 285 281 280 283 280 266 258
262 262 258 255 261 273 276 276 282 291 284 231 216 220 227 258 291 358 348 13 355 313 320 342 309 287 283 310 298 275 265 266 266 263 265 263 268 275 276 275 279 279 277 271
272 269 267 264 259 259 265 268 278 296 302 280 263 228 208 218 201 202 268 296 294 297 325 6 305 284 293 313 297 273 270 265 267 268 263 267 271 277 285 287 286 289 292 293
274 280 282 280 270 263 258 263 263 263 286 268 245 245 236 233 206 190 225 265 319 354 324 310 288 299 310 308 280 269 272 273 272 276 277 278 282 293 303 309 312 313 314 325
302 294 296 297 287 286 278 260 255 234 244 257 237 230 229 240 233 207 194 308 116 358 316 295 307 342 333 305 271 273 282 286 289 298 299 296 300 312 314 321 331 337 344 345
306 314 309 301 297 292 282 263 255 249 231 241 247 251 268 281 267 253 251 272 183 308 324 342 356 15 329 281 276 285 293 298 299 296 294 311 324 328 322 333 355 4 355 351
322 312 301 294 288 280 267 241 229 225 211 211 235 242 252 262 265 267 274 148 128 164 272 31 48 302 278 264 276 283 287 292 297 301 305 322 352 3 8 20 21 16 17 7
327 310 301 290 274 264 246 221 206 204 212 216 228 229 241 249 253 244 196 146 156 188 232 216 223 237 242 260 271 272 280 296 302 313 329 346 352 11 32 32 19 8 9 9
312 304 306 303 304 287 265 245 228 220 219 220 227 216 219 187 173 193 198 199 194 223 257 236 216 223 240 254 267 283 299 306 303 305 354 17 22 29 34 25 13 20 23 18
284 288 280 288 281 273 277 278 252 240 247 250 265 230 237 218 184 172 201 210 240 252 259 261 231 215 253 265 279 299 311 327 346 360 23 29 30 28 23 22 19 15 12 13
Height
1468 1463 1462 1463 1463 1461 1465 1467 1477 1476 1473 1469 1468 1470 1473 1476 1479 1482 1485 1488 1490 1492 1494 1497 1500 1502 1504 1507 1509 1511 1512 1514 1515 1517 1518 1520 1521 1522 1523 1524 1525 1526 1526 1527
1473 1464 1463 1465 1461 1460 1460 1462 1465 1467 1469 1463 1466 1471 1474 1477 1479 1482 1485 1488 1489 1491 1493 1496 1498 1500 1502 1505 1507 1509 1510 1512 1513 1514 1516 1517 1518 1519 1521 1521 1522 1523 1524 1524
1480 1467 1466 1472 1462 1460 1460 1457 1461 1469 1468 1465 1468 1471 1475 1477 1480 1482 1484 1487 1488 1490 1491 1493 1496 1498 1500 1502 1504 1506 1508 1509 1510 1512 1513 1514 1515 1516 1517 1518 1519 1520 1520 1521
1479 1479 1489 1466 1452 1452 1456 1457 1457 1460 1463 1465 1468 1472 1474 1477 1479 1481 1483 1485 1487 1488 1489 1491 1494 1496 1498 1500 1502 1504 1505 1506 1507 1509 1510 1511 1512 1513 1514 1515 1515 1516 1516 1517
1480 1482 1475 1460 1453 1454 1459 1462 1459 1461 1463 1465 1467 1470 1473 1476 1478 1481 1483 1484 1485 1486 1488 1489 1492 1494 1495 1497 1499 1500 1502 1503 1504 1506 1507 1508 1509 1510 1511 1512 1513 1513 1513 1514
1481 1486 1485 1465 1453 1453 1457 1467 1461 1462 1464 1466 1468 1471 1473 1475 1477 1479 1481 1483 1483 1485 1486 1488 1490 1491 1493 1494 1496 1497 1498 1500 1502 1503 1504 1505 1507 1508 1508 1509 1510 1510 1510 1510
1479 1482 1473 1460 1456 1456 1471 1471 1464 1464 1466 1468 1469 1472 1474 1475 1478 1479 1480 1481 1482 1484 1485 1486 1488 1489 1490 1492 1492 1494 1496 1498 1499 1500 1502 1503 1504 1505 1506 1506 1507 1507 1507 1507
1475 1482 1479 1460 1459 1464 1467 1465 1465 1466 1468 1470 1471 1473 1474 1475 1477 1478 1479 1480 1481 1482 1484 1485 1486 1487 1488 1489 1490 1492 1494 1495 1496 1498 1499 1501 1502 1502 1503 1503 1504 1503 1504 1503
1467 1470 1465 1464 1464 1466 1466 1467 1468 1468 1469 1471 1472 1473 1475 1476 1478 1478 1478 1479 1480 1481 1482 1483 1484 1485 1485 1487 1488 1490 1491 1492 1494 1495 1496 1498 1499 1499 1500 1500 1500 1500 1500 1500
1463 1463 1463 1465 1466 1467 1468 1468 1469 1470 1470 1471 1472 1474 1475 1476 1477 1477 1477 1477 1479 1480 1481 1482 1483 1483 1484 1485 1486 1487 1488 1490 1491 1492 1493 1495 1496 1497 1497 1497 1497 1497 1497 1497
1463 1463 1464 1465 1466 1468 1468 1469 1469 1470 1470 1471 1472 1474 1475 1475 1476 1476 1476 1476 1477 1478 1479 1480 1481 1482 1482 1483 1484 1485 1486 1487 1488 1490 1491 1491 1492 1493 1493 1493 1493 1493 1493 1493
1464 1464 1466 1466 1467 1468 1469 1469 1470 1470 1470 1471 1472 1473 1474 1474 1475 1475 1475 1475 1476 1477 1478 1479 1479 1480 1481 1481 1482 1483 1484 1484 1486 1487 1488 1488 1488 1489 1488 1489 1489 1490 1490 1490
1465 1466 1467 1467 1468 1468 1469 1469 1470 1471 1471 1471 1471 1472 1473 1473 1473 1474 1474 1474 1475 1476 1477 1477 1478 1478 1479 1479 1480 1481 1481 1482 1483 1484 1485 1485 1485 1485 1485 1485 1485 1485 1485 1485
1466 1466 1467 1467 1468 1469 1469 1469 1469 1469 1470 1470 1470 1471 1472 1472 1473 1473 1473 1474 1474 1475 1476 1476 1477 1477 1477 1478 1478 1479 1480 1480 1481 1481 1482 1482 1482 1481 1481 1481 1480 1480 1479 1479
1466 1466 1466 1467 1468 1467 1468 1468 1468 1468 1468 1468 1469 1469 1470 1471 1472 1472 1472 1473 1473 1474 1474 1475 1474 1475 1475 1476 1476 1476 1477 1478 1478 1478 1478 1478 1478 1478 1477 1477 1476 1476 1475 1474
1465 1465 1465 1466 1467 1468 1468 1468 1467 1467 1467 1467 1467 1468 1469 1470 1470 1471 1471 1471 1471 1472 1472 1472 1472 1473 1473 1474 1474 1474 1474 1474 1475 1475 1475 1474 1474 1474 1474 1473 1473 1472 1472 1470
1464 1465 1465 1466 1466 1466 1467 1467 1467 1466 1466 1466 1467 1467 1468 1468 1469 1469 1469 1470 1470 1470 1471 1471 1471 1471 1471 1470 1471 1471 1471 1471 1471 1471 1471 1471 1471 1471 1470 1470 1470 1468 1468 1467
1463 1463 1464 1464 1464 1465 1465 1466 1465 1465 1466 1465 1466 1466 1466 1467 1468 1468 1468 1468 1468 1468 1469 1469 1469 1468 1468 1468 1468 1468 1469 1469 1469 1469 1469 1468 1468 1468 1467 1467 1466 1465 1464 1463
1460 1461 1461 1462 1462 1463 1463 1463 1463 1463 1463 1464 1464 1464 1464 1466 1466 1466 1466 1466 1466 1466 1466 1466 1466 1467 1466 1466 1466 1466 1467 1467 1467 1466 1466 1466 1465 1464 1464 1464 1463 1462 1461 1460
1458 1459 1459 1460 1460 1461 1461 1461 1461 1461 1462 1462 1462 1462 1463 1464 1464 1464 1464 1465 1465 1465 1464 1464 1464 1464 1464 1464 1464 1464 1464 1465 1465 1464 1463 1463 1462 1461 1461 1460 1460 1459 1458 1457
1457 1457 1457 1457 1457 1457 1457 1458 1459 1459 1460 1460 1461 1461 1461 1462 1462 1462 1462 1463 1463 1463 1463 1463 1462 1462 1462 1462 1462 1462 1462 1462 1462 1461 1460 1460 1459 1458 1458 1457 1456 1455 1455 1454
1456 1456 1456 1455 1455 1455 1455 1456 1457 1457 1458 1458 1458 1459 1459 1460 1460 1460 1460 1461 1461 1461 1461 1461 1460 1460 1460 1460 1460 1460 1459 1459 1459 1458 1457 1457 1456 1456 1455 1454 1453 1453 1452 1451
1454 1454 1454 1454 1454 1454 1454 1454 1455 1455 1456 1456 1456 1457 1457 1457 1458 1459 1459 1459 1459 1459 1458 1458 1458 1458 1457 1458 1458 1457 1457 1457 1456 1455 1455 1454 1454 1453 1452 1452 1451 1449 1448 1448
1453 1453 1453 1453 1452 1452 1452 1452 1453 1453 1453 1454 1454 1455 1456 1456 1456 1457 1457 1457 1457 1457 1457 1456 1456 1456 1456 1455 1455 1455 1455 1454 1454 1453 1453 1452 1451 1450 1450 1449 1448 1447 1446 1445
1452 1451 1451 1451 1451 1451 1450 1450 1450 1451 1452 1452 1453 1454 1454 1454 1455 1455 1455 1455 1455 1455 1455 1455 1455 1454 1454 1454 1453 1453 1453 1452 1452 1451 1450 1449 1449 1448 1448 1447 1446 1445 1444 1443
1451 1450 1450 1450 1450 1449 1449 1449 1449 1449 1450 1451 1451 1452 1453 1453 1453 1453 1454 1454 1454 1453 1454 1454 1453 1453 1452 1452 1452 1451 1451 1450 1449 1449 1448 1447 1447 1446 1445 1445 1444 1443 1442 1441
1450 1449 1449 1448 1448 1448 1448 1448 1448 1448 1449 1450 1450 1451 1452 1452 1452 1452 1452 1452 1452 1452 1452 1452 1452 1451 1450 1450 1450 1449 1449 1448 1447 1446 1446 1445 1445 1444 1443 1442 1441 1441 1439 1438